Location: Ottawa
(45.4170°N, 75.7000°W)
Time: 13:52:39
(UTC-04:00)

Tiangong 2 - Visible Passes

Search period start: 21 May 2019 00:00
Search period end: 31 May 2019 00:00
Orbit: 379 x 387 km, 42.8° (Epoch: 21 May)

Date Brightness Start Highest point End Pass type
(mag) Time Alt. Az. Time Alt. Az. Time Alt. Az.
21 May 1.4 22:08:45 10° WSW 22:11:45 42° SSE 22:12:42 31° ESE visible
22 May 1.9 21:08:59 10° SW 21:11:50 32° SSE 21:14:40 10° E visible
22 May 1.4 22:45:13 10° WSW 22:47:55 48° SSW 22:47:55 48° SSW visible
23 May 1.3 21:45:16 10° WSW 21:48:19 49° S 21:50:44 15° ESE visible
23 May 3.2 23:21:50 10° W 23:22:55 19° WSW 23:22:55 19° WSW visible
24 May 1.3 22:21:48 10° W 22:24:51 49° S 22:25:36 38° SE visible
25 May 1.3 21:21:49 10° WSW 21:24:52 52° S 21:27:56 10° ESE visible
25 May 2.5 22:58:29 10° W 23:00:23 26° SW 23:00:23 26° SW visible
26 May 1.6 21:58:24 10° W 22:01:22 41° SSW 22:02:57 22° SE visible
27 May 2.6 22:35:13 10° WSW 22:37:38 23° SSW 22:37:38 23° SSW visible
28 May 2.1 21:35:01 10° W 21:37:51 32° SSW 21:40:10 14° SE visible
29 May 3.1 22:12:09 10° WSW 22:14:08 16° SSW 22:14:52 15° S visible
